This demonstration page uses our WeatherBlox Daily Observations layout. Learn more.

Hourly Observations for May 17, 2018

Temp ( °F °C ) Dew Point ( °F °C ) Humidity (%) Winds ( mph kmh ) Pressure ( in mb ) Visibility ( mi km ) Precip ( " mm )
12:54 am 00:54 Clear 67 19.4 60 15.6 79 79 S 3 6 29.96 1014 10 16.0934 0 0
1:54 am 01:54 Clear 65 18.3 60 15.6 84 84 Calm 29.96 1014 10 16.0934 0 0
2:54 am 02:54 Clear 61 16.1 58 14.4 90 90 N 3 6 29.95 1014 10 16.0934 0 0
3:54 am 03:54 Clear 57 13.9 55 12.8 93 93 NNE 3 6 29.96 1014 9 14.48406 0 0
4:54 am 04:54 Clear 58 14.4 55 12.8 90 90 Calm 29.95 1014 10 16.0934 0 0
5:54 am 05:54 Clear 57 13.9 55 12.8 93 93 NNE 3 6 29.96 1015 9 14.48406 0 0
6:54 am 06:54 Sunny 58 14.4 55 12.8 90 90 Calm 29.98 1015 8 12.87472 0 0
7:54 am 07:54 Sunny 65 18.3 57 13.9 76 76 Calm 29.98 1015 9 14.48406 0 0
8:54 am 08:54 Sunny 69 20.6 58 14.4 68 68 Calm 29.99 1016 10 16.0934 0 0
9:54 am 09:54 Sunny 75 23.9 55 12.8 50 50 SE 8 13 29.98 1015 10 16.0934 0 0
10:54 am 10:54 Sunny 78 25.6 55 12.8 45 45 SE 10 17 29.97 1015 10 16.0934 0 0
11:54 am 11:54 Sunny 80 26.7 57 13.9 45 45 SE 7 11 29.96 1015 10 16.0934 0 0
12:54 pm 12:54 Sunny 82 27.8 58 14.4 44 44 SSE 14 22 29.93 1014 10 16.0934 0 0
1:54 pm 13:54 Sunny 83 28.3 57 13.9 41 41 SE 15 24 29.92 1013 10 16.0934 0 0
2:54 pm 14:54 Sunny 85 29.4 57 13.9 39 39 SE 13 20 29.9 1013 10 16.0934 0 0
3:54 pm 15:54 Sunny 85 29.4 54 12.2 35 35 SSE 15 24 29.89 1012 10 16.0934 0 0
4:54 pm 16:54 Sunny 85 29.4 52 11.1 32 32 SSE 12 19 29.87 1012 10 16.0934 0 0
5:54 pm 17:54 Sunny 84 28.9 52 11.1 33 33 SE 13 20 29.86 1011 10 16.0934 0 0
6:54 pm 18:54 Sunny 83 28.3 53 11.7 36 36 SE 13 20 29.85 1011 10 16.0934 0 0
7:54 pm 19:54 Sunny 81 27.2 52 11.1 37 37 SE 15 24 29.83 1010 10 16.0934 0 0
8:54 pm 20:54 Clear 78 25.6 52 11.1 40 40 SE 10 17 29.82 1010 10 16.0934 0 0
9:54 pm 21:54 Clear 76 24.4 53 11.7 45 45 SE 10 17 29.83 1010 10 16.0934 0 0
10:54 pm 22:54 Clear 74 23.3 54 12.2 50 50 SE 14 22 29.86 1011 10 16.0934 0 0
11:54 pm 23:54 Clear 73 22.8 56 13.3 55 55 SE 12 19 29.88 1012 10 16.0934 0 0

Powered by AerisWeather